Starlink 32028

operational
NORAD ID: 60095 Int'l Des: 2024-117 Owner: SPXS Country: US Constellation: starlink
LEOCIRCULAR

Starlink 32028について

説明を読み込み中...

リアルタイム位置

3D地球を読み込み中...

次回通過

高度履歴

Altitude vs Time

uPlot chart will show altitude changes over time

軌道要素

1 60095U 24117E 26035.68927280 -.00000839 00000-0 -16210-4 0 9999
2 60095 53.1600 190.4313 0001143 86.7497 273.3634 15.30192730 91838
Epoch: Feb 4, 2026 • Age: 23 hours

現在のステータス

高度 477.9 km
速度 7.63 km/s
衛星直下点 -9.08°S, 163.13°E
打ち上げ日 Jun 23, 2024
運用期間 1.6 years
タイプ internet

技術仕様

分類 Payload
質量 730.00 kg
乾燥質量 700.00 kg
総質量 730.00 kg
長さ 0.30 m
直径 4.10 m
スパン 29.00 m
形状 Box + pan
製造者 SPXS
バスタイプ Starlink V2M
フェーズステータス In Orbit
所有者/国 SPXS/US

大規模コンステレーション

Loading constellations...